Skip Page Navigation
NASA JPL Caltech
NASA Logo - Jet Propulsion Laboratory + View the NASA Portal
+ Center for Near-Earth Object Studies
JPL Home Earth Solar System Stars & Galaxies Technology
JPL Solar System Dynamics
BODIES ORBITS EPHEMERIDES TOOLS PHYSICAL DATA DISCOVERY FAQ SITE MAP
JPL Small-Body Database Browser
Search: [ help ]  
3503 Brandt (1981 EF17)
Classification: Main-belt Asteroid          SPK-ID: 2003503
Ephemeris | Orbit Diagram | Orbital Elements | Mission Design | Physical Parameters | Discovery Circumstances ]

[ show orbit diagram ]
Orbital Elements at Epoch 2459000.5 (2020-May-31.0) TDB
Reference: JPL 24 (heliocentric ecliptic J2000)
 Element Value Uncertainty (1-sigma)   Units 
e .1861976230373206 3.8199e-08  
a 2.616603003575091 1.052e-08 au
q 2.129397743877095 1.0113e-07 au
i 11.91445971053492 5.0746e-06 deg
node 186.8777902969161 1.7428e-05 deg
peri 113.5397527850376 2.2163e-05 deg
M 347.999376803216 1.242e-05 deg
tp 2459052.035498247223
(2020-Jul-21.53549825)
5.3339e-05 TDB
period 1545.984659694358
4.23
9.3231e-06
2.553e-08
d
yr
n .2328613015288083 1.4043e-09 deg/d
Q 3.103808263273086 1.2478e-08 au
  Orbit Determination Parameters
   # obs. used (total)      1729  
   data-arc span      16686 days (45.68 yr)  
   first obs. used      1974-10-10  
   last obs. used      2020-06-16  
   planetary ephem.      DE431  
   SB-pert. ephem.      SB431-N16  
   condition code      0  
   norm. resid. RMS      .48611  
   source      ORB  
   producer      Otto Matic  
   solution date      2020-Jun-23 15:58:09  

Additional Information
 Earth MOID = 1.14742 au 
 Jupiter MOID = 2.26914 au 
 T_jup = 3.352 
[ show covariance matrix ]

Ephemeris | Orbit Diagram | Orbital Elements | Mission Design | Physical Parameters | Discovery Circumstances ]

Physical Parameter Table
Parameter Symbol Value Units Sigma Reference Notes
absolute magnitude H 13.4   n/a MPO435731  
diameter diameter 5.245 km 0.404 urn:nasa:pds:neowise_diameters_albedos::2.0[mainbelt] (http://adsabs.harvard.edu/abs/2011ApJ...741...68M)  
geometric albedo albedo 0.213   0.030 urn:nasa:pds:neowise_diameters_albedos::2.0[mainbelt] (http://adsabs.harvard.edu/abs/2011ApJ...741...68M)  

3503 Brandt (1981 EF17)          Discovered 1981-Mar-01 by Bus, S. J. at Siding Spring
Reference: DISCOVERY.DBLast Updated: 2003-08-29

Alternate Designations
 1981 EF17 = 1974 TB1 = 1978 SQ1 
Ephemeris | Orbit Diagram | Orbital Elements | Mission Design | Physical Parameters | Discovery Circumstances ]
ABOUT SSD CREDITS/AWARDS PRIVACY/COPYRIGHT GLOSSARY LINKS
FirstGov 2020-Jul-10 10:11 UT
(server date/time)  
NASA Home Page
Site Manager:   Ryan S. Park
Webmaster  Alan B. Chamberlin